Location: Sudbury
(46.5221°N, 80.9530°W)
Time: 11:10:23
(UTC-04:00)

ISS - Visible Passes

Search period start: 28 September 2023 00:00
Search period end: 08 October 2023 00:00
Orbit: 413 x 421 km, 51.6° (Epoch: 28 September)

Date Brightness Start Highest point End Pass type
(mag) Time Alt. Az. Time Alt. Az. Time Alt. Az.
28 Sep -3.6 20:16:35 10° WNW 20:19:55 63° NNE 20:21:41 25° E visible
28 Sep -0.9 21:53:38 10° W 21:54:35 16° W 21:54:35 16° W visible
29 Sep -2.8 21:05:08 10° WNW 21:08:16 40° SW 21:08:16 40° SW visible
30 Sep -3.5 20:16:43 10° WNW 20:20:01 64° SSW 20:21:57 22° SE visible
01 Oct -3.8 19:28:17 10° WNW 19:31:39 85° NNE 19:35:00 10° ESE visible
01 Oct -1.5 21:05:44 10° W 21:08:01 17° SW 21:08:37 17° SSW visible
02 Oct -2.0 20:16:51 10° W 20:19:44 27° SW 20:22:25 11° SSE visible
03 Oct -2.7 19:28:09 10° WNW 19:31:20 43° SW 19:34:31 10° SE visible
04 Oct -0.8 20:17:50 10° WSW 20:19:02 12° SW 20:20:13 10° SSW visible
05 Oct -1.1 19:28:14 10° W 19:30:38 19° SW 19:33:02 10° S visible
